Weather Roundup
Issued by NWS

Home | Current Version | Previous Version | Text Only | Print | Product List | Glossary On
Versions: 1 2 3 4 5 6 7 8 9 10 11 12 13 14 15 16 17 18 19 20 21 22 23 24 25 26 27 28 29 30 31 32 33 34 35 36 37 38 39 40 41 42 43 44 45 46 47 48 49 50
451
NZUS93 KARX 222359
HRRWXR

CURRENT HOURLY OBSERVATIONS ACROSS
MUCH OF THE UPPER MISSISSIPPI VALLEY
NATIONAL WEATHER SERVICE LA CROSSE WI
700 PM CDT TUE MAY 22 2018


...SOUTHEAST MINNESOTA...


CITY           SKY/WX    TMP DP  RH WIND       PRES   REMARKS
ROCHESTER      FAIR      70  60  70 E7        30.04S
ROCHESTER/MAYO FAIR      71  58  63 NE5       30.05S
WINONA         FAIR      68  59  73 E3        30.03F
AUSTIN         FAIR      77  55  47 NE5       30.01F
ALBERT LEA     FAIR      77  52  41 SE3       30.01F
DODGE CENTER   FAIR      73  57  56 E7        30.04S
PRESTON        FAIR      68  58  68 E6        30.06S
OWATONNA       FAIR      75  61  60 E8        30.02S
FARIBAULT      FAIR      75  57  53 CALM      30.02S
$$

...ELSEWHERE IN MINNESOTA...


CITY           SKY/WX    TMP DP  RH WIND       PRES   REMARKS
MINNEAPOLIS    FAIR      74  58  57 SE8       30.02S
INTNL FALLS    FAIR      76  45  33 E7        29.98R
DULUTH         FAIR      76  54  46 SW10      30.01R
RED WING       FAIR      72  52  49 S5        30.03S
REDWOOD FALLS  SUNNY     77  58  51 SE7       29.97F
MANKATO        FAIR      78  57  48 SE8       30.00S
WORTHINGTON    PTSUNNY   78  62  57 SE12      29.98F
FAIRMONT       MOSUNNY   78  60  53 S9        29.99F
$$

...SOUTHWEST WISCONSIN...


CITY           SKY/WX    TMP DP  RH WIND       PRES   REMARKS
LA CROSSE      PTSUNNY   68  57  68 CALM      30.05F
PRAIRIE DU CHI FAIR      73  58  59 W7        30.03S
BOSCOBEL       FAIR      70  59  68 E6        30.05S
LONE ROCK      NOT AVBL
PLATTEVILLE    FAIR      70  63  78 NE5       30.05S
FORT MC COY    CLOUDY    63  57  81 CALM      30.08S
MAUSTON-NEW LI CLOUDY    65  58  80 SW3       30.06S
VIROQUA        CLOUDY    64  59  83 CALM      30.07F
WIS DELLS      CLOUDY    65  56  72 NW5       30.07S
$$

...ELSEWHERE IN WISCONSIN...


CITY           SKY/WX    TMP DP  RH WIND       PRES   REMARKS
MILWAUKEE      FAIR      58  52  80 SE5       30.05S
MADISON        FAIR      68  58  70 N5        30.05S
GREEN BAY      FAIR      72  59  63 S9        30.01S
EAU CLAIRE     NOT AVBL
BLACK RVR FLS  CLOUDY    65  56  71 CALM      30.07S
MEDFORD        FAIR      70  55  58 SW8       30.05R
WAUSAU         FAIR      71  57  61 SW7       30.02R
WIS RAPIDS     FAIR      70  58  65 SW6       30.05F
MARSHFIELD     FAIR      68  58  70 W6        30.05R
RICE LAKE      CLOUDY    73  53  50 W3        30.06S
$$

...NORTHEAST IOWA...


CITY           SKY/WX    TMP DP  RH WIND       PRES   REMARKS
WATERLOO       FAIR      75  61  61 E6        30.01S
DUBUQUE        FAIR      70  58  65 CALM      30.05S
DECORAH        FAIR      70  59  68 CALM      30.04S
MASON CITY     MOSUNNY   78  58  49 SW9       30.01S
CHARLES CITY   FAIR      75  59  57 E9        30.02F
OELWEIN        FAIR      73  61  64 E5        30.04S
$$

...ELSEWHERE IN IOWA...


CITY           SKY/WX    TMP DP  RH WIND       PRES   REMARKS
DES MOINES     PTSUNNY   78  63  59 SE7       29.99S
IOWA CITY      FAIR      78  60  53 CALM      30.03S
FORT DODGE     CLOUDY    78  63  59 S5        29.99F
MARSHALLTOWN   SUNNY     76  64  66 S8        30.00F
CEDAR RAPIDS   FAIR      77  60  55 CALM      30.01F
$$

...NORTHERN ILLINOIS...


CITY           SKY/WX    TMP DP  RH WIND       PRES   REMARKS
CHICAGO-OHARE  FAIR      65  54  67 E5        30.04S
CHICAGO-MIDWAY PTSUNNY   60  53  77 E7        30.04F
MOLINE         FAIR      75  61  61 NE5       30.02S
ROCKFORD       FAIR      69  58  67 N8        30.06R
PEORIA         FAIR      76  59  55 N7        30.02S
$$

NOTE: "FAIR" INDICATES FEW OR NO CLOUDS BELOW 12,000 FEET WITH NO
SIGNIFICANT WEATHER AND/OR OBSTRUCTIONS TO VISIBILITY. WIND
SPEEDS ARE IN MILES-PER-HOUR.




USA.gov is the U.S. government's official web portal to all federal, state and local government web resources and services.